| time (UTC) | temp C | wind direction | speed KPH | gust KPH | rain 1hr cm | rain 24hr cm | rain mn cm | humidity % | barometer mb |
| 20260504202927 | 25 | 230 | 3.2 | 8.0 | 0.00 | 0.00 | 0.00 | 50 | |
| 20260504202424 | 25 | 174 | 6.4 | 9.7 | 0.00 | 0.00 | 0.00 | 48 | |
| 20260504201921 | 25 | 212 | 1.6 | 11.3 | 0.00 | 0.00 | 0.00 | 50 | 1015.8 |
| 20260504201418 | 25 | 209 | 4.8 | 8.0 | 0.00 | 0.00 | 0.00 | 49 | 1015.8 |
| 20260504200915 | 25 | 176 | 4.8 | 8.0 | 0.00 | 0.00 | 0.00 | 49 | 1015.8 |
| 20260504200412 | 25 | 208 | 3.2 | 8.0 | 0.00 | 0.00 | 0.00 | 49 | 1015.8 |
| 20260504195909 | 25 | 258 | 3.2 | 4.8 | 0.00 | 0.00 | 0.00 | 49 | 1015.8 |
| 20260504195404 | 25 | 199 | 4.8 | 9.7 | 0.00 | 0.00 | 0.00 | 47 | 1015.8 |
| 20260504194901 | 25 | 264 | 3.2 | 16.1 | 0.00 | 0.00 | 0.00 | 49 | 1015.8 |
| 20260504194357 | 25 | 165 | 6.4 | 12.9 | 0.00 | 0.00 | 0.00 | 48 | 1015.8 |
| 20260504193853 | 25 | 225 | 8.0 | 12.9 | 0.00 | 0.00 | 0.00 | 45 | 1015.8 |
| 20260504193350 | 25 | 205 | 8.0 | 14.5 | 0.00 | 0.00 | 0.00 | 47 | 1015.8 |
| 20260504192849 | 25 | 242 | 4.8 | 8.0 | 0.00 | 0.00 | 0.00 | 50 | 1015.8 |
| 20260504192347 | 25 | 266 | 4.8 | 11.3 | 0.00 | 0.00 | 0.00 | 48 | 1015.8 |
| 20260504191845 | 25 | 297 | 4.8 | 14.5 | 0.00 | 0.00 | 0.00 | 50 | |
| 20260504191343 | 25 | 174 | 11.3 | 17.7 | 0.00 | 0.00 | 0.00 | 49 | |
| 20260504190838 | 25 | 240 | 0.0 | 11.3 | 0.00 | 0.00 | 0.00 | 50 | |
| 20260504190334 | 25 | 243 | 1.6 | 9.7 | 0.00 | 0.00 | 0.00 | 46 | |
| 20260504185831 | 25 | 246 | 8.0 | 14.5 | 0.00 | 0.00 | 0.00 | 50 | |
| 20260504185328 | 25 | 233 | 8.0 | 16.1 | 0.00 | 0.00 | 0.00 | 49 | |
| 20260504184824 | 26 | 188 | 9.7 | 9.7 | 0.00 | 0.00 | 0.00 | 48 | |
| 20260504184320 | 25 | 235 | 1.6 | 9.7 | 0.00 | 0.00 | 0.00 | 53 | |
| 20260504183815 | 25 | 133 | 8.0 | 14.5 | 0.00 | 0.00 | 0.00 | 47 | |
| 20260504183313 | 25 | 76 | 4.8 | 11.3 | 0.00 | 0.00 | 0.00 | 49 | |
| 20260504182811 | 25 | 231 | 3.2 | 3.2 | 0.00 | 0.00 | 0.00 | 50 | |
| 20260504182308 | 25 | 235 | 6.4 | 9.7 | 0.00 | 0.00 | 0.00 | 46 | |
| 20260504181805 | 25 | 119 | 6.4 | 17.7 | 0.00 | 0.00 | 0.00 | 49 | |
| 20260504181302 | 25 | 227 | 8.0 | 9.7 | 0.00 | 0.00 | 0.00 | 48 | |
| 20260504180801 | 25 | 200 | 11.3 | 14.5 | 0.00 | 0.00 | 0.00 | 47 | 1017.6 |
| 20260504180259 | 25 | 234 | 6.4 | 9.7 | 0.00 | 0.00 | 0.00 | 47 | 1017.6 |
| 20260504175757 | 24 | 219 | 4.8 | 16.1 | 0.00 | 0.00 | 0.00 | 47 | 1017.6 |
| 20260504175253 | 25 | 206 | 3.2 | 8.0 | 0.00 | 0.00 | 0.00 | 49 | 1017.6 |
| 20260504174751 | 24 | 188 | 6.4 | 9.7 | 0.00 | 0.00 | 0.00 | 46 | 1017.6 |
| 20260504174249 | 25 | 224 | 6.4 | 9.7 | 0.00 | 0.00 | 0.00 | 48 | 1017.6 |
| 20260504173745 | 24 | 168 | 4.8 | 8.0 | 0.00 | 0.00 | 0.00 | 48 | 1017.6 |
| 20260504173242 | 24 | 124 | 4.8 | 9.7 | 0.00 | 0.00 | 0.00 | 49 | 1017.6 |
| 20260504172739 | 25 | 221 | 3.2 | 9.7 | 0.00 | 0.00 | 0.00 | 51 | 1017.6 |
| 20260504172236 | 25 | 259 | 3.2 | 8.0 | 0.00 | 0.00 | 0.00 | 49 | 1017.6 |
| 20260504171732 | 24 | 196 | 0.0 | 9.7 | 0.00 | 0.00 | 0.00 | 49 | 1017.6 |
| 20260504171229 | 24 | 242 | 3.2 | 11.3 | 0.00 | 0.00 | 0.00 | 49 | 1017.6 |
| 20260504170726 | 24 | 157 | 1.6 | 12.9 | 0.00 | 0.00 | 0.00 | 49 | 1017.0 |
| 20260504170223 | 24 | 207 | 6.4 | 9.7 | 0.00 | 0.00 | 0.00 | 47 | 1017.0 |
| 20260504160142 | 23 | 224 | 8.0 | 11.3 | 0.00 | 0.00 | 0.00 | 46 | 1017.7 |
| 20260504151109 | 23 | 211 | 0.0 | 11.3 | 0.00 | 0.00 | 0.00 | 60 | 1018.0 |
| 20260504150607 | 22 | 221 | 0.0 | 9.7 | 0.00 | 0.00 | 0.00 | 60 | 1018.0 |
| 20260504150104 | 22 | 226 | 1.6 | 8.0 | 0.00 | 0.00 | 0.00 | 60 | 1018.0 |
| 20260504141032 | 22 | 253 | 0.0 | 1.6 | 0.00 | 0.00 | 0.00 | 70 | 1018.1 |
| 20260504140529 | 21 | 239 | 0.0 | 3.2 | 0.00 | 0.00 | 0.00 | 73 | 1017.8 |
| 20260504130453 | 18 | 248 | 0.0 | 0.0 | 0.00 | 0.00 | 0.00 | 85 | 1018.0 |
| 20260504110340 | 10 | 253 | 0.0 | 0.0 | 0.00 | 0.00 | 0.00 | 99 | 1017.2 |
| 20260504100258 | 10 | 253 | 0.0 | 0.0 | 0.00 | 0.00 | 0.00 | 99 | 1017.2 |
| 20260504081651 | 11 | 251 | 0.0 | 0.0 | 0.00 | 0.00 | 0.00 | 99 | 1017.5 |
| 20260504081147 | 11 | 245 | 0.0 | 0.0 | 0.00 | 0.00 | 0.00 | 99 | 1017.5 |
| 20260504080644 | 11 | 251 | 0.0 | 0.0 | 0.00 | 0.00 | 0.00 | 99 | 1017.6 |
| 20260504080140 | 11 | 251 | 0.0 | 0.0 | 0.00 | 0.00 | 0.00 | 99 | 1017.5 |
| 20260504070108 | 11 | 269 | 0.0 | 0.0 | 0.00 | 0.00 | 0.00 | 99 | 1017.9 |
| 20260504050457 | 12 | 243 | 0.0 | 0.0 | 0.00 | 0.00 | 0.00 | 99 | 1018.7 |
| 20260504045954 | 12 | 240 | 0.0 | 0.0 | 0.00 | 0.00 | 0.00 | 99 | 1018.7 |
| 20260504045449 | 12 | 250 | 0.0 | 0.0 | 0.00 | 0.00 | 0.00 | 99 | 1018.7 |
| 20260504044946 | 12 | 239 | 0.0 | 0.0 | 0.00 | 0.00 | 0.00 | 98 | 1018.8 |
| 20260504044443 | 12 | 245 | 0.0 | 0.0 | 0.00 | 0.00 | 0.00 | 98 | 1018.8 |
| 20260504043941 | 12 | 245 | 0.0 | 0.0 | 0.00 | 0.00 | 0.00 | 98 | 1019.0 |
| 20260504043437 | 13 | 244 | 0.0 | 0.0 | 0.00 | 0.00 | 0.00 | 98 | 1018.9 |
| 20260504042935 | 13 | 249 | 0.0 | 0.0 | 0.00 | 0.00 | 0.00 | 97 | 1018.7 |
| 20260504042431 | 13 | 248 | 0.0 | 0.0 | 0.00 | 0.00 | 0.00 | 97 | 1018.7 |
| 20260504041928 | 13 | 249 | 0.0 | 0.0 | 0.00 | 0.00 | 0.00 | 97 | 1018.7 |
| 20260504041424 | 13 | 262 | 0.0 | 0.0 | 0.00 | 0.00 | 0.00 | 97 | 1018.7 |
| 20260504040920 | 13 | 249 | 0.0 | 0.0 | 0.00 | 0.00 | 0.00 | 97 | 1018.8 |
| 20260504040419 | 13 | 243 | 0.0 | 0.0 | 0.00 | 0.00 | 0.00 | 96 | 1019.0 |
| 20260504035914 | 13 | 246 | 0.0 | 0.0 | 0.00 | 0.00 | 0.00 | 96 | 1019.0 |
| 20260504035412 | 13 | 237 | 0.0 | 0.0 | 0.00 | 0.00 | 0.00 | 96 | 1019.0 |
| 20260504034908 | 13 | 249 | 0.0 | 0.0 | 0.00 | 0.00 | 0.00 | 95 | 1019.0 |
| 20260504034405 | 13 | 256 | 0.0 | 0.0 | 0.00 | 0.00 | 0.00 | 95 | 1019.0 |
| 20260504033902 | 13 | 247 | 0.0 | 0.0 | 0.00 | 0.00 | 0.00 | 94 | 1018.8 |
| 20260504033400 | 13 | 247 | 0.0 | 0.0 | 0.00 | 0.00 | 0.00 | 94 | 1019.1 |
| 20260504032857 | 13 | 245 | 0.0 | 0.0 | 0.00 | 0.00 | 0.00 | 94 | 1019.0 |
| 20260504032354 | 13 | 240 | 0.0 | 0.0 | 0.00 | 0.00 | 0.00 | 94 | 1018.9 |
| 20260504031850 | 13 | 239 | 0.0 | 0.0 | 0.00 | 0.00 | 0.00 | 94 | 1019.0 |
| 20260504031348 | 13 | 244 | 0.0 | 0.0 | 0.00 | 0.00 | 0.00 | 93 | 1018.9 |
| 20260504030844 | 14 | 241 | 0.0 | 0.0 | 0.00 | 0.00 | 0.00 | 93 | 1019.0 |
| 20260504030341 | 14 | 249 | 0.0 | 0.0 | 0.00 | 0.00 | 0.00 | 92 | 1019.0 |
| 20260504025837 | 14 | 251 | 0.0 | 0.0 | 0.00 | 0.00 | 0.00 | 92 | 1019.0 |
| 20260504025335 | 14 | 251 | 0.0 | 0.0 | 0.00 | 0.00 | 0.00 | 91 | 1018.7 |
| 20260504024831 | 14 | 245 | 0.0 | 0.0 | 0.00 | 0.00 | 0.00 | 91 | 1018.7 |
| 20260504024327 | 14 | 239 | 0.0 | 0.0 | 0.00 | 0.00 | 0.00 | 91 | 1018.7 |
| 20260504023824 | 15 | 240 | 0.0 | 0.0 | 0.00 | 0.00 | 0.00 | 90 | 1018.7 |
| 20260504023321 | 15 | 243 | 0.0 | 0.0 | 0.00 | 0.00 | 0.00 | 89 | 1018.7 |
| 20260504022817 | 15 | 247 | 0.0 | 0.0 | 0.00 | 0.00 | 0.00 | 89 | 1018.7 |
| 20260504022314 | 15 | 250 | 0.0 | 0.0 | 0.00 | 0.00 | 0.00 | 88 | 1018.7 |
| 20260504021810 | 15 | 226 | 0.0 | 0.0 | 0.00 | 0.00 | 0.00 | 88 | 1018.7 |
| 20260504021308 | 15 | 240 | 0.0 | 0.0 | 0.00 | 0.00 | 0.00 | 88 | 1018.5 |
| 20260504020805 | 15 | 225 | 0.0 | 0.0 | 0.00 | 0.00 | 0.00 | 89 | 1018.2 |
| 20260504020302 | 15 | 245 | 0.0 | 0.0 | 0.00 | 0.00 | 0.00 | 86 | 1018.1 |
| 20260504015757 | 15 | 245 | 0.0 | 0.0 | 0.00 | 0.00 | 0.00 | 86 | 1018.1 |
| 20260504015254 | 15 | 239 | 0.0 | 0.0 | 0.00 | 0.00 | 0.00 | 85 | 1018.1 |
| 20260504014750 | 16 | 239 | 0.0 | 0.0 | 0.00 | 0.00 | 0.00 | 84 | 1018.1 |
| 20260504014246 | 16 | 239 | 0.0 | 0.0 | 0.00 | 0.00 | 0.00 | 83 | 1018.1 |
| 20260504013744 | 16 | 239 | 0.0 | 0.0 | 0.00 | 0.00 | 0.00 | 83 | |
| 20260504013242 | 16 | 239 | 0.0 | 0.0 | 0.00 | 0.00 | 0.00 | 83 | |
| 20260504012738 | 16 | 238 | 0.0 | 0.0 | 0.00 | 0.00 | 0.00 | 82 | |
| 20260504012236 | 17 | 239 | 0.0 | 0.0 | 0.00 | 0.00 | 0.00 | 80 | |
| 20260504011732 | 17 | 249 | 0.0 | 0.0 | 0.00 | 0.00 | 0.00 | 77 | |
| 20260504011229 | 17 | 251 | 0.0 | 0.0 | 0.00 | 0.00 | 0.00 | 76 | |
| 20260504010726 | 17 | 246 | 0.0 | 0.0 | 0.00 | 0.00 | 0.00 | 75 | |
| 20260504010221 | 17 | 239 | 0.0 | 0.0 | 0.00 | 0.00 | 0.00 | 75 | |
| 20260504005718 | 18 | 236 | 0.0 | 0.0 | 0.00 | 0.00 | 0.00 | 74 | 1017.8 |
| 20260504005215 | 18 | 228 | 0.0 | 0.0 | 0.00 | 0.00 | 0.00 | 75 | 1017.8 |
| 20260504004713 | 18 | 231 | 0.0 | 0.0 | 0.00 | 0.00 | 0.00 | 74 | 1017.8 |
| 20260504004210 | 18 | 235 | 0.0 | 0.0 | 0.00 | 0.00 | 0.00 | 74 | 1017.8 |
| 20260504003707 | 19 | 233 | 0.0 | 0.0 | 0.00 | 0.00 | 0.00 | 72 | 1017.8 |
| 20260504003203 | 19 | 239 | 0.0 | 0.0 | 0.00 | 0.00 | 0.00 | 71 | 1017.8 |
| 20260504002700 | 20 | 239 | 0.0 | 0.0 | 0.00 | 0.00 | 0.00 | 69 | 1017.8 |
| 20260504002157 | 20 | 239 | 0.0 | 0.0 | 0.00 | 0.00 | 0.00 | 68 | 1017.8 |
| 20260504001655 | 20 | 239 | 0.0 | 0.0 | 0.00 | 0.00 | 0.00 | 67 | 1017.8 |
| 20260504001151 | 21 | 233 | 0.0 | 0.0 | 0.00 | 0.00 | 0.00 | 66 | 1017.8 |
| 20260504000648 | 21 | 240 | 0.0 | 0.0 | 0.00 | 0.00 | 0.00 | 64 | 1017.8 |
| 20260504000145 | 21 | 240 | 0.0 | 0.0 | 0.00 | 0.00 | 0.00 | 61 | 1017.8 |
| 20260503235644 | 22 | 226 | 1.6 | 1.6 | 0.00 | 0.00 | 0.00 | 59 | |
| 20260503235140 | 22 | 239 | 0.0 | 0.0 | 0.00 | 0.00 | 0.00 | 57 | |
| 20260503234638 | 22 | 244 | 0.0 | 0.0 | 0.00 | 0.00 | 0.00 | 52 | |
| 20260503234136 | 22 | 256 | 0.0 | 0.0 | 0.00 | 0.00 | 0.00 | 51 | |
| 20260503233632 | 22 | 257 | 0.0 | 0.0 | 0.00 | 0.00 | 0.00 | 52 | |
| 20260503233128 | 22 | 251 | 0.0 | 0.0 | 0.00 | 0.00 | 0.00 | 52 | |
| 20260503232625 | 22 | 255 | 0.0 | 0.0 | 0.00 | 0.00 | 0.00 | 49 | |
| 20260503232123 | 22 | 253 | 0.0 | 0.0 | 0.00 | 0.00 | 0.00 | 46 | |
| 20260503231621 | 23 | 287 | 0.0 | 0.0 | 0.00 | 0.00 | 0.00 | 48 | |
| 20260503231117 | 23 | 281 | 0.0 | 0.0 | 0.00 | 0.00 | 0.00 | 45 | |
| 20260503230614 | 23 | 252 | 0.0 | 0.0 | 0.00 | 0.00 | 0.00 | 48 | |
| 20260503230111 | 23 | 245 | 0.0 | 0.0 | 0.00 | 0.00 | 0.00 | 47 | |
| 20260503225609 | 23 | 262 | 0.0 | 3.2 | 0.00 | 0.00 | 0.00 | 48 | |
| 20260503225108 | 23 | 243 | 0.0 | 0.0 | 0.00 | 0.00 | 0.00 | 44 | |
| 20260503224606 | 23 | 245 | 0.0 | 1.6 | 0.00 | 0.00 | 0.00 | 45 | |
| 20260503224104 | 23 | 250 | 0.0 | 0.0 | 0.00 | 0.00 | 0.00 | 45 | 1018.6 |
| 20260503223602 | 23 | 269 | 0.0 | 1.6 | 0.00 | 0.00 | 0.00 | 43 | 1018.6 |
| 20260503223056 | 23 | 313 | 1.6 | 1.6 | 0.00 | 0.00 | 0.00 | 43 | 1018.6 |
| 20260503222555 | 23 | 281 | 0.0 | 0.0 | 0.00 | 0.00 | 0.00 | 42 | 1018.6 |
| 20260503222052 | 23 | 261 | 0.0 | 3.2 | 0.00 | 0.00 | 0.00 | 43 | 1018.6 |
| 20260503221550 | 23 | 285 | 1.6 | 1.6 | 0.00 | 0.00 | 0.00 | 46 | 1018.6 |
| 20260503221047 | 23 | 260 | 0.0 | 0.0 | 0.00 | 0.00 | 0.00 | 45 | 1018.6 |
| 20260503220543 | 23 | 236 | 0.0 | 0.0 | 0.00 | 0.00 | 0.00 | 44 | 1018.6 |
| 20260503220041 | 23 | 250 | 0.0 | 0.0 | 0.00 | 0.00 | 0.00 | 43 | 1018.6 |
| 20260503215538 | 23 | 257 | 0.0 | 0.0 | 0.00 | 0.00 | 0.00 | 44 | 1018.6 |
| 20260503215035 | 23 | 246 | 0.0 | 1.6 | 0.00 | 0.00 | 0.00 | 45 | 1018.6 |
| 20260503214533 | 23 | 228 | 0.0 | 1.6 | 0.00 | 0.00 | 0.00 | 44 | 1018.6 |
| 20260503214029 | 23 | 254 | 0.0 | 3.2 | 0.00 | 0.00 | 0.00 | 44 | 1018.5 |
| 20260503213528 | 23 | 325 | 0.0 | 0.0 | 0.00 | 0.00 | 0.00 | 42 | |
| 20260503213024 | 23 | 245 | 0.0 | 0.0 | 0.00 | 0.00 | 0.00 | 43 | |
| 20260503212521 | 23 | 305 | 0.0 | 0.0 | 0.00 | 0.00 | 0.00 | 43 | |
| 20260503212019 | 23 | 296 | 0.0 | 3.2 | 0.00 | 0.00 | 0.00 | 43 | 1019.6 |
| 20260503211516 | 23 | 27 | 1.6 | 8.0 | 0.00 | 0.00 | 0.00 | 41 | 1019.6 |
| 20260503211011 | 23 | 274 | 1.6 | 1.6 | 0.00 | 0.00 | 0.00 | 47 | 1019.6 |
| 20260503210508 | 23 | 226 | 0.0 | 4.8 | 0.00 | 0.00 | 0.00 | 42 | 1019.6 |
| 20260503210005 | 23 | 29 | 3.2 | 3.2 | 0.00 | 0.00 | 0.00 | 41 | 1019.6 |
| 20260503205501 | 24 | 283 | 1.6 | 3.2 | 0.00 | 0.00 | 0.00 | 46 | 1019.6 |
| 20260503204956 | 24 | 267 | 0.0 | 0.0 | 0.00 | 0.00 | 0.00 | 43 | 1019.6 |
| 20260503204454 | 23 | 251 | 0.0 | 4.8 | 0.00 | 0.00 | 0.00 | 40 | 1019.6 |
| 20260503203950 | 23 | 112 | 3.2 | 3.2 | 0.00 | 0.00 | 0.00 | 43 | 1019.6 |
| 20260503203449 | 24 | 22 | 1.6 | 1.6 | 0.00 | 0.00 | 0.00 | 44 | 1019.6 |